Meteo pe oră la Almensilla

Astăzi, 17 Ianuarie, Duminică

Timp Temperatura Precipitaţii Vânt Presiune Umiditate
00:00 +7°C° 0 mm 2 m/s 767 mmHg 65%
01:00 +7°C° 0 mm 2 m/s 767 mmHg 65%
02:00 +6°C° 0 mm 2 m/s 767 mmHg 65%
03:00 +5°C° 0 mm 3 m/s 767 mmHg 65%
04:00 +5°C° 0 mm 3 m/s 767 mmHg 65%
05:00 +5°C° 0 mm 3 m/s 767 mmHg 65%
06:00 +4°C° 0 mm 3 m/s 766 mmHg 65%
07:00 +5°C° 0 mm 3 m/s 767 mmHg 63%
08:00 +5°C° 0 mm 3 m/s 767 mmHg 61%
09:00 +7°C° 0 mm 3 m/s 767 mmHg 59%
10:00 +9°C° 0 mm 3 m/s 767 mmHg 54%
11:00 +11°C° 0 mm 3 m/s 767 mmHg 49%
12:00 +14°C° 0 mm 3 m/s 767 mmHg 44%
13:00 +15°C° 0 mm 2 m/s 766 mmHg 44%
14:00 +16°C° 0 mm 2 m/s 766 mmHg 44%
15:00 +17°C° 0 mm 2 m/s 765 mmHg 43%
16:00 +15°C° 0 mm 2 m/s 765 mmHg 48%
17:00 +13°C° 0 mm 2 m/s 765 mmHg 53%
18:00 +11°C° 0 mm 1 m/s 765 mmHg 58%
19:00 +11°C° 0 mm 1 m/s 765 mmHg 59%
20:00 +10°C° 0 mm 1 m/s 765 mmHg 60%
21:00 +10°C° 0 mm 1 m/s 765 mmHg 62%
22:00 +9°C° 0 mm 1 m/s 765 mmHg 62%
23:00 +9°C° 0 mm 1 m/s 766 mmHg 63%

Mâine, 18 Ianuarie, Luni

Timp Temperatura Precipitaţii Vânt Presiune Umiditate
00:00 +9°C° 0 mm 1 m/s 766 mmHg 64%
01:00 +8°C° 0 mm 1 m/s 765 mmHg 65%
02:00 +7°C° 0 mm 2 m/s 765 mmHg 65%
03:00 +6°C° 0 mm 2 m/s 765 mmHg 66%
04:00 +6°C° 0 mm 2 m/s 765 mmHg 66%
05:00 +6°C° 0 mm 2 m/s 764 mmHg 67%
06:00 +6°C° 0 mm 2 m/s 764 mmHg 67%
07:00 +6°C° 0 mm 2 m/s 765 mmHg 66%
08:00 +7°C° 0 mm 2 m/s 765 mmHg 65%
09:00 +7°C° 0 mm 2 m/s 765 mmHg 64%
10:00 +9°C° 0 mm 2 m/s 765 mmHg 59%
11:00 +12°C° 0 mm 2 m/s 765 mmHg 54%
12:00 +14°C° 0 mm 2 m/s 765 mmHg 50%
13:00 +15°C° 0 mm 2 m/s 765 mmHg 50%
14:00 +15°C° 0 mm 1 m/s 764 mmHg 50%
15:00 +16°C° 0 mm 1 m/s 764 mmHg 50%
16:00 +14°C° 0 mm 1 m/s 764 mmHg 56%
17:00 +13°C° 0 mm 1 m/s 764 mmHg 62%
18:00 +10°C° 0 mm 0 m/s 764 mmHg 68%
19:00 +10°C° 0 mm 0 m/s 764 mmHg 71%
20:00 +9°C° 0 mm 0 m/s 765 mmHg 73%
21:00 +9°C° 0 mm 0 m/s 765 mmHg 76%
22:00 +9°C° 0 mm 1 m/s 765 mmHg 77%
23:00 +9°C° 0 mm 1 m/s 765 mmHg 79%

Poimâine, 19 Ianuarie, Marţi

Timp Temperatura Precipitaţii Vânt Presiune Umiditate
00:00 +9°C° 0 mm 1 m/s 765 mmHg 80%
01:00 +8°C° 0 mm 1 m/s 765 mmHg 82%
02:00 +8°C° 0 mm 1 m/s 764 mmHg 83%
03:00 +8°C° 0 mm 1 m/s 764 mmHg 85%
04:00 +8°C° 0 mm 1 m/s 764 mmHg 86%
05:00 +7°C° 0 mm 1 m/s 764 mmHg 87%
06:00 +7°C° 0 mm 1 m/s 764 mmHg 88%
07:00 +8°C° 0 mm 1 m/s 764 mmHg 86%
08:00 +8°C° 0 mm 1 m/s 764 mmHg 84%
09:00 +8°C° 0 mm 2 m/s 764 mmHg 82%
10:00 +9°C° 0 mm 2 m/s 764 mmHg 78%
11:00 +12°C° 0 mm 2 m/s 764 mmHg 74%
12:00 +13°C° 0 mm 2 m/s 763 mmHg 70%
13:00 +14°C° 0 mm 2 m/s 763 mmHg 69%
14:00 +14°C° 0 mm 3 m/s 762 mmHg 69%
15:00 +14°C° 0 mm 3 m/s 761 mmHg 68%
16:00 +14°C° 0 mm 3 m/s 761 mmHg 71%
17:00 +14°C° 0 mm 2 m/s 761 mmHg 74%
18:00 +13°C° 0 mm 2 m/s 761 mmHg 77%
19:00 +13°C° 0 mm 2 m/s 761 mmHg 78%
20:00 +13°C° 0 mm 2 m/s 761 mmHg 78%
21:00 +12°C° 0 mm 3 m/s 761 mmHg 79%
22:00 +12°C° 0 mm 3 m/s 761 mmHg 79%
23:00 +12°C° 0 mm 3 m/s 760 mmHg 79%

20 Ianuarie, Miercuri

Timp Temperatura Precipitaţii Vânt Presiune Umiditate
00:00 +12°C° 0 mm 3 m/s 760 mmHg 79%
01:00 +12°C° 0 mm 4 m/s 759 mmHg 79%
02:00 +12°C° 0 mm 4 m/s 759 mmHg 80%
03:00 +12°C° 0 mm 5 m/s 758 mmHg 80%
04:00 +12°C° 0.1 mm 5 m/s 758 mmHg 81%
05:00 +13°C° 0.1 mm 6 m/s 757 mmHg 82%
06:00 +13°C° 0.1 mm 6 m/s 756 mmHg 83%
07:00 +12°C° 1.3 mm 7 m/s 756 mmHg 84%
08:00 +12°C° 1.3 mm 8 m/s 756 mmHg 85%
09:00 +13°C° 1.3 mm 8 m/s 755 mmHg 86%
10:00 +13°C° 5.7 mm 8 m/s 755 mmHg 85%
11:00 +15°C° 5.7 mm 8 m/s 755 mmHg 83%
12:00 +15°C° 5.7 mm 8 m/s 755 mmHg 82%
13:00 +16°C° 0.2 mm 8 m/s 755 mmHg 77%
14:00 +16°C° 0.2 mm 7 m/s 755 mmHg 73%
15:00 +16°C° 0.2 mm 7 m/s 755 mmHg 69%
16:00 +15°C° 0.1 mm 6 m/s 755 mmHg 72%
17:00 +14°C° 0.1 mm 5 m/s 755 mmHg 76%
18:00 +13°C° 0.1 mm 4 m/s 756 mmHg 80%
19:00 +12°C° 0 mm 4 m/s 756 mmHg 82%
20:00 +12°C° 0 mm 3 m/s 757 mmHg 84%
21:00 +11°C° 0 mm 3 m/s 758 mmHg 86%
22:00 +11°C° 0 mm 3 m/s 758 mmHg 87%
23:00 +11°C° 0 mm 3 m/s 759 mmHg 89%

21 Ianuarie, Joi

Timp Temperatura Precipitaţii Vânt Presiune Umiditate
00:00 +10°C° 0 mm 2 m/s 759 mmHg 90%
01:00 +10°C° 0 mm 2 m/s 759 mmHg 90%
02:00 +10°C° 0 mm 2 m/s 759 mmHg 91%
03:00 +10°C° 0 mm 2 m/s 759 mmHg 91%
04:00 +10°C° 0 mm 2 m/s 759 mmHg 91%
05:00 +11°C° 0 mm 1 m/s 759 mmHg 91%
06:00 +11°C° 0 mm 1 m/s 760 mmHg 91%
07:00 +11°C° 0 mm 1 m/s 760 mmHg 90%
08:00 +12°C° 0 mm 1 m/s 760 mmHg 89%
09:00 +13°C° 0 mm 1 m/s 760 mmHg 88%
10:00 +13°C° 0.1 mm 3 m/s 760 mmHg 84%
11:00 +14°C° 0.1 mm 4 m/s 760 mmHg 80%
12:00 +16°C° 0.1 mm 6 m/s 760 mmHg 76%
13:00 +16°C° 0.1 mm 7 m/s 760 mmHg 76%
14:00 +16°C° 0.1 mm 7 m/s 759 mmHg 76%
15:00 +16°C° 0.1 mm 8 m/s 759 mmHg 75%
16:00 +15°C° 0.2 mm 7 m/s 759 mmHg 80%
17:00 +15°C° 0.2 mm 7 m/s 758 mmHg 84%
18:00 +15°C° 0.2 mm 7 m/s 758 mmHg 89%
19:00 +15°C° 0.5 mm 7 m/s 759 mmHg 90%
20:00 +15°C° 0.5 mm 6 m/s 759 mmHg 91%
21:00 +15°C° 0.5 mm 5 m/s 759 mmHg 93%
22:00 +14°C° 0 mm 5 m/s 760 mmHg 93%
23:00 +14°C° 0 mm 4 m/s 760 mmHg 94%

22 Ianuarie, Vineri

Timp Temperatura Precipitaţii Vânt Presiune Umiditate
00:00 +13°C° 0 mm 3 m/s 760 mmHg 94%
01:00 +12°C° 0 mm 3 m/s 760 mmHg 94%
02:00 +12°C° 0 mm 3 m/s 760 mmHg 95%
03:00 +12°C° 0 mm 2 m/s 760 mmHg 95%
04:00 +12°C° 0 mm 2 m/s 760 mmHg 95%
05:00 +12°C° 0 mm 2 m/s 761 mmHg 95%
06:00 +12°C° 0 mm 2 m/s 761 mmHg 95%
07:00 +12°C° 0 mm 2 m/s 761 mmHg 94%
08:00 +13°C° 0 mm 2 m/s 762 mmHg 93%
09:00 +12°C° 0 mm 3 m/s 762 mmHg 92%
10:00 +14°C° 0 mm 4 m/s 762 mmHg 85%
11:00 +15°C° 0 mm 5 m/s 762 mmHg 78%
12:00 +16°C° 0 mm 6 m/s 762 mmHg 71%
13:00 +16°C° 0 mm 6 m/s 762 mmHg 71%
14:00 +16°C° 0 mm 5 m/s 762 mmHg 70%
15:00 +17°C° 0 mm 5 m/s 762 mmHg 69%
16:00 +15°C° 0 mm 5 m/s 762 mmHg 72%
17:00 +14°C° 0 mm 4 m/s 763 mmHg 74%
18:00 +13°C° 0 mm 4 m/s 763 mmHg 77%
19:00 +12°C° 0 mm 3 m/s 763 mmHg 79%
20:00 +11°C° 0 mm 3 m/s 764 mmHg 81%
21:00 +10°C° 0 mm 3 m/s 765 mmHg 83%
22:00 +10°C° 0 mm 2 m/s 765 mmHg 85%
23:00 +9°C° 0 mm 2 m/s 765 mmHg 87%
Arată mai mult

Formular de consimțământ

Meteoprog și furnizorii noștri de servicii pot stoca și accesa date personale, precum cookies, identificatori de dispozitiv sau alte tehnologii similare pe dispozitivul dumneavoastră și procesa astfel de date pentru a personaliza conținutul și reclamele, dar și pentru a oferi caracteristici de social media și pentru a analiza traficul.

  • Stocarea și/sau accesarea informațiilor pe dispozitivul dumneavoastră

    Cookies, identificatori de dispozitiv sau alte informații pot fi stocate sau accesate pe dispozitiv în scopurile indicate mai sus.

  • Reclame și conținut personalizat, evaluarea reclamelor și a conținutului, informații despre audiențe și dezvoltarea produselor

    Reclamele și conținutul pot fi personalizate pe baza unui profil. Pot fi adăugate date suplimentare pentru a personaliza mai bine reclamele și conținutul. Performanța reclamelor și conținutului poate fi măsurată. Pot fi obținute informații despre utilizatorii care au văzut reclamele și conținutul. Aceste date pot fi utilizate pentru a dezvolta sau îmbunătăți experiența utilizatorilor, sistemele și software-ul.

Dând clic pe ‘Sunt de acord’, permiteți utilizarea cookie-urilor menționate, a identificatorilor de dispozitiv, balizelor web sau altor tehnologii similare. Setările pot fi modificate din browser-ul dispozitivului dumneavoastră.

În anumite scopuri, interesele legitime pot prima asupra consimțământului. Puteți citi mai multe informații în acest sens în Politica privind Confidențialitatea Datelor și Cookie.